This is the latest recevied weather packets stored in our database for station/object KC3BHK-2. If no packets are shown the sender has not sent any weather packets the latest 10 day(s).
| Time | Temp. | Humidity | Pressure | Rain* | Wind** | Luminosity | Snow |
|---|---|---|---|---|---|---|---|
| 1777718770 | 6.11° C | - | - | 0 mm | 1.34 m/s, 18° | - | - |
| 1777718465 | 6.67° C | - | - | 0 mm | 4.47 m/s, 304° | - | - |
| 1777718157 | 6.11° C | - | - | 0 mm | 4.02 m/s, 284° | - | - |
| 1777717852 | 7.22° C | - | - | 0 mm | 2.68 m/s, 294° | - | - |
| 1777717547 | 6.67° C | - | - | 0 mm | 1.79 m/s, 353° | - | - |
| 1777717242 | 6.67° C | - | - | 0 mm | 1.79 m/s, 0° | - | - |
| 1777716937 | 6.11° C | - | - | 0 mm | 2.24 m/s, 297° | - | - |
| 1777716632 | 7.22° C | - | - | 0 mm | 2.24 m/s, 295° | - | - |
| 1777716324 | 6.67° C | - | - | 0 mm | 1.79 m/s, 302° | - | - |
| 1777716019 | 7.22° C | - | - | 0 mm | 0.45 m/s, 318° | - | - |
| 1777715714 | 7.22° C | - | - | 0 mm | 0.45 m/s, 332° | - | - |
| 1777715409 | 7.22° C | - | - | 0 mm | 1.34 m/s, 336° | - | - |
| 1777715104 | 7.22° C | - | - | 0 mm | 3.13 m/s, 290° | - | - |
| 1777714799 | 6.67° C | - | - | 0 mm | 2.68 m/s, 283° | - | - |
| 1777714492 | 7.22° C | - | - | 0 mm | 1.34 m/s, 301° | - | - |
| 1777714187 | 7.78° C | - | - | 0 mm | 3.58 m/s, 293° | - | - |
| 1777713881 | 7.22° C | - | - | 0 mm | 4.47 m/s, 283° | - | - |
| 1777713576 | 7.78° C | - | - | 0 mm | 5.81 m/s, 283° | - | - |
| 1777713271 | 7.78° C | - | - | 0 mm | 4.02 m/s, 298° | - | - |
| 1777712967 | 8.33° C | - | - | 0 mm | 3.13 m/s, 294° | - | - |
| 1777712658 | 7.78° C | - | - | 0 mm | 2.68 m/s, 295° | - | - |
| 1777712353 | 7.78° C | - | - | 0 mm | 1.34 m/s, 342° | - | - |
| 1777712049 | 8.33° C | - | - | 0 mm | 0.45 m/s, 335° | - | - |
| 1777711743 | 7.78° C | - | - | 0 mm | 2.24 m/s, 15° | - | - |
| 1777711439 | 8.33° C | - | - | 0 mm | 2.24 m/s, 340° | - | - |
* Rain latest hour (hover to see other rain measurements)
** Current wind speed in m/s (hover to see current wind gust speed)